Flag for United Kingdom Weather past 2 weeks in Winchester, England, United Kingdom

Now
59 °F

Scattered clouds.


Feels Like: 57 °F
Forecast: 48 / 61 °F
Wind: 12 mph from Northwest

Location: Middle Wallop

Current Time: Sep 2, 2015 at 7:06:47 PM

Latest Report: Sep 2, 2015 at 5:50 PM


Visibility: N/A

Pressure: 30.04 "Hg

Humidity: 59%

Dew point: 45 °F

Location of WinchesterLocation

Historic Weather in Winchester — Graph

°F

Winchester temperature yesterday

Maximum temperature yesterday: 66 °F (at 3:50 PM)
Minimum temperature yesterday: 52 °F (at 6:50 AM)
Average temperature yesterday: 58 °F

Past Weeks' High & Low Weather Summary

 TemperatureHumidityPressure
High81 °F (Aug 22, 12:50 PM)100% (Aug 19, 7:50 PM)30.12 "Hg (Aug 19, 7:50 PM)
Low45 °F (Aug 28, 6:50 AM)46% (Sep 1, 3:50 PM)29.42 "Hg (Aug 24, 12:50 PM)
Average60 °F85%29.90 "Hg
* Reported Aug 18 5:50 PM — Sep 2 5:50 PM, Winchester, Weather by CustomWeather, © 2015

Note: Actual official high and low records may vary slightly from our data, if they occured in-between our weather recording intervals... More about our weather records

Advertising

Winchester weather history for previous 24 hours

 ConditionsComfort  
Time TempWeatherWind HumidityBarometerVisibility
5:50 PM
Wed, Sep 2
59 °FScattered clouds.12 mph59%30.04 "HgN/A
4:50 PM63 °FPartly sunny.9 mph49%30.04 "HgN/A
3:50 PM63 °FPartly sunny.7 mph49%30.04 "HgN/A
2:50 PM63 °FPartly sunny.10 mph49%30.04 "HgN/A
1:50 PM61 °FPartly sunny.9 mph52%30.07 "HgN/A
12:50 PM61 °FPassing clouds.9 mph52%30.07 "HgN/A
11:50 AM61 °FPassing clouds.8 mph55%30.07 "HgN/A
10:50 AM59 °FPassing clouds.7 mph68%30.09 "HgN/A
9:50 AM55 °FPassing clouds.7 mph77%30.09 "HgN/A
8:50 AM52 °FPassing clouds.6 mph88%30.09 "HgN/A
7:50 AM48 °FPassing clouds.5 mph94%30.09 "HgN/A
6:50 AM46 °FPassing clouds.3 mph93%30.07 "HgN/A
5:50 AM46 °FPassing clouds.3 mph93%30.07 "HgN/A
4:50 AM46 °FClear.2 mph93%30.07 "HgN/A
3:50 AM48 °FClear.3 mph94%30.09 "HgN/A
2:50 AM48 °FPassing clouds.6 mph94%30.09 "HgN/A
1:50 AM52 °FPassing clouds.6 mph88%30.09 "HgN/A
11:50 PM
Tue, Sep 1
52 °FPassing clouds.6 mph94%30.09 "HgN/A
10:50 PM54 °FClear.6 mph94%30.09 "Hg10 mi
9:50 PM55 °FPartly cloudy.No wind82%30.09 "HgN/A
9:03 PM57 °FLots of rain. Partly cloudy.8 mph88%30.12 "Hg2 mi
8:50 PM59 °FSprinkles. Scattered clouds.6 mph72%30.09 "HgN/A
7:50 PM61 °FPassing clouds.6 mph68%30.09 "HgN/A
Weather by CustomWeather, © 2015

See weather overviewHow to use our weather pages